Location: Azul
(36.7830°S, 59.8500°W)
Time: 08:16:20
(UTC-03:00)

UKube-1 - Pass Details

Date: 25 October 2021
Orbit: 611 x 617 km, 98.4° (Epoch: 07 December)

Event Time Altitude Azimuth Distance (km) Brightness Sun altitude
Exits shadow 20:14:40 13° 60° (ENE) 1,777 ? -10.0°
Maximum altitude 20:17:38 26° 111° (ESE) 1,231 ? -10.6°
Drops below altitude 10° 20:21:15 10° 167° (SSE) 2,006 ? -11.2°
Sets 20:23:43 0° 179° (S) 2,919 ? -11.7°
